Home > Weather > Vereeniging > Past weeks

Flag for South Africa Weather for the Past 2 Weeks in Vereeniging, South Africa

Now
72 °F

Mild.


Feels Like: 76 °F
Forecast: 38 / 73 °F
Wind: 8 mph from West

Location: Vereeniging

Current Time: May 6, 2016 at 1:37:44 PM

Latest Report: May 6, 2016 at 1:00 PM


Visibility: N/A

Pressure: 30.24 "Hg (25.59 "Hg at 1443m altitude)

Humidity: 25%

Dew Point: 34 °F

Location of VereenigingLocation

Historic Weather in Vereeniging — Graph

°F

Vereeniging Temperature Yesterday

Maximum temperature yesterday: 75 °F (at 3:00 PM)
Minimum temperature yesterday: 39 °F (at 5:00 AM)
Average temperature yesterday: 57 °F

High & Low Weather Summary for the Past Weeks

 TemperatureHumidityPressure
High82 °F (Apr 24, 2:00 PM)94% (Apr 22, 8:00 AM)30.36 "Hg (Apr 22, 8:00 AM)
Low37 °F (May 4, 4:00 AM)13% (Apr 28, 3:00 PM)29.95 "Hg (Apr 29, 3:00 PM)
Average60 °F55%30.19 "Hg
* Reported Apr 21 12:00 Noon — May 6 12:00 Noon, Vereeniging, Weather by CustomWeather, © 2016

Note: Actual official high and low records may vary slightly from our data, if they occured in-between our weather recording intervals... More about our weather records

Advertising

Vereeniging Weather History for the Previous 24 Hours

Scroll right to see more
 ConditionsComfort  
Time TempWeatherWind HumidityBarometerVisibility
12:00 PM
Fri, May 6
70 °FMild.8 mph29%30.27 "HgN/A
11:00 AM70 °FMild.8 mph29%30.30 "HgN/A
10:00 AM66 °FMild.8 mph35%30.30 "HgN/A
9:00 AM63 °FMild.13 mph45%30.30 "HgN/A
8:00 AM52 °FCool.7 mph67%30.30 "HgN/A
7:00 AM41 °FQuite cool.7 mph81%30.27 "HgN/A
6:00 AM41 °FQuite cool.7 mph87%30.24 "HgN/A
5:00 AM43 °FQuite cool.7 mph81%30.24 "HgN/A
4:00 AM41 °FQuite cool.7 mph81%30.27 "HgN/A
3:00 AM45 °FQuite cool.12 mph76%30.27 "HgN/A
1:00 AM45 °FQuite cool.8 mph76%30.30 "HgN/A
12:00 AM45 °FQuite cool.7 mph76%30.30 "HgN/A
11:00 PM
Thu, May 5
48 °FCool.7 mph66%30.30 "HgN/A
10:00 PM48 °FCool.7 mph62%30.30 "HgN/A
9:00 PM55 °FRefreshingly cool.7 mph41%30.33 "HgN/A
8:00 PM54 °FCool.7 mph47%30.30 "HgN/A
7:00 PM57 °FRefreshingly cool.6 mph41%30.30 "HgN/A
6:00 PM66 °FMild.6 mph28%30.27 "HgN/A
5:00 PM73 °FMild.7 mph20%30.27 "HgN/A
4:00 PM75 °FMild.7 mph19%30.27 "HgN/A
3:00 PM75 °FMild.8 mph18%30.27 "HgN/A
2:00 PM73 °FMild.8 mph22%30.27 "HgN/A
1:00 PM72 °FMild.8 mph23%30.30 "HgN/A
Weather by CustomWeather, © 2016

See weather overviewHow to use our weather pages